Probability
0 0 0 0 0 0 0 0 0 0 0 0 0 0 0 0 0 0 0 0 0 0 0 0 0 0 0 0 0 0 0 0 0 0 0 0 0 0 0 0 0 0 0 0 0 0 0 0 0
0 0 0 0 0 0 0 0 0 0 0 0 0 0 0 0 0 0 0 0 0 0 0 0 0 0 0 0 0 0 0 0 0 0 0 0 0 0 0 0 0 0 0 0 0 0 0 0 0
0 0 0 0 0 0 0 0 0 0 0 0 0 0 0 0 0 0 0 0 0 0 0 0 0 0 0 0 0 0 0 0 0 0 0 0 0 0 0 0 0 0 0 0 0 0 0 0 0
0 0 0 0 0 0 0 0 0 0 0 0 0 0 0 0 0 0 0 0 0 0 0 0 0 0 0 0 0 0 0 0 0 0 0 0 0 0 0 0 0 0 0 0 0 0 0 0 0
0 0 0 0 0 0 0 0 0 0 0 0 0 0 0 0 0 0 0 0 0 0 0 0 0 0 0 0 0 0 0 0 0 0 0 0 0 0 0 0 0 0 0 0 0 0 0 0 0
0 0 0 0 0 0 0 0 0 0 0 0 0 0 0 0 0 0 0 0 0 0 0 0 0 0 0 0 0 0 0 0 0 0 0 0 0 0 0 0 0 0 0 0 0 0 0 0 0
0 0 0 0 0 0 0 0 0 0 0 0 0 0 0 0 0 0 0 0 0 0 0 0 0 0 0 0 0 0 0 0 0 0 0 0 0 0 0 0 0 0 0 0 0 0 0 0 0
0 0 0 0 0 0 0 0 0 0 0 0 0 0 0 0 0 0 0 0 0 0 0 0 0 0 0 0 0 0 0 0 0 0 0 0 0 0 0 0 0 0 0 0 0 0 0 0 0
0 0 0 0 0 0 0 0 0 0 0 0 0 0 0 0 0 0 0 0 0 0 0 0 0 0 0 0 0 0 0 0 0 0 0 0 0 0 0 0 0 0 0 0 0 0 0 0 0
0 0 0 0 0 0 0 0 0 0 0 0 0 0 0 0 0 0 0 0 0 0 0 0 0 0 0 0 0 0 0 0 0 0 0 0 0 0 0 0 0 0 0 0 0 0 0 0 0
0 0 0 0 0 0 0 0 0 0 0 0 0 0 0 0 0 0 0 0 0 0 0 0 0 0 0 0 0 0 0 0 0 0 0 0 0 0 0 0 0 0 0 0 0 0 0 0 0
0 0 0 0 0 0 0 0 0 0 0 0 0 0 0 0 0 0 0 0 0 0 0 0 0 0 0 0 0 0 0 0 0 0 0 0 0 0 0 0 0 0 0 0 0 0 0 0 0
0 0 0 0 0 0 0 0 0 0 0 0 0 0 0 0 0 0 0 0 0 0 0 0 0 0 0 0 0 0 0 0 0 0 0 0 0 0 0 0 0 0 0 0 0 0 0 0 0
0 0 0 0 0 0 0 0 0 0 0 0 0 0 0 0 0 0 0 0 0 0 0 0 0 0 0 0 0 0 0 0 0 0 0 0 0 0 0 0 0 0 0 0 0 0 0 0 0
0 0 0 0 0 0 0 0 0 0 0 0 0 0 0 0 0 0 0 0 0 0 0 0 0 0 0 0 0 0 0 0 0 0 0 0 0 0 0 0 0 0 0 0 0 0 0 0 0
0 0 0 0 0 0 0 0 0 0 0 0 0 0 0 0 0 0 0 0 0 0 0 0 0 0 0 0 0 0 0 0 0 0 0 0 0 0 0 0 0 0 0 0 0 0 0 0 0
0 0 0 0 0 0 0 0 0 0 0 0 0 0 0 0 0 0 0 0 0 0 0 0 0 0 0 0 0 0 0 0 0 0 0 0 0 0 0 0 0 0 0 0 0 0 0 0 0
0 0 0 0 0 0 0 0 0 0 0 0 0 0 0 0 0 0 0 0 0 0 0 0 0 0 0 0 0 0 0 0 0 0 0 0 0 0 0 0 0 0 0 0 0 0 0 0 0
0 0 0 0 0 0 0 0 0 0 0 0 0 0 0 0 0 0 0 0 0 0 0 0 0 0 0 0 0 0 0 0 0 0 0 0 0 0 0 0 0 0 0 0 0 0 0 0 0
0 0 0 0 0 0 0 0 0 0 0 0 0 0 0 0 0 0 0 0 0 0 0 0 0 0 0 0 0 0 0 0 0 0 0 0 0 0 0 0 0 0 0 0 0 0 0 0 0
0 0 0 0 0 0 0 0 0 0 0 0 0 0 0 0 0 0 0 0 0 0 0 0 0 0 0 0 0 0 0 0 0 0 0 0 0 0 0 0 0 0 0 0 0 0 0 0 0
0 0 0 0 0 0 0 0 0 0 0 0 0 0 0 0 0 0 0 0 0 0 0 0 0 0 0 0 0 0 0 0 0 0 0 0 0 0 0 0 0 0 0 0 0 0 0 0 0
0 0 0 0 0 0 0 0 0 0 0 0 0 0 0 0 0 0 0 0 0 0 0 0 0 0 0 0 0 0 0 0 0 0 0 0 0 0 0 0 0 0 0 0 0 0 0 0 0
0 0 0 0 0 0 0 0 0 0 0 0 0 0 0 0 0 0 0 0 0 0 0 0 0 0 0 0 0 0 0 0 0 0 0 0 0 0 0 0 0 0 0 0 0 0 0 0 0
0 0 0 0 0 0 0 0 0 0 0 0 0 0 0 0 0 0 0 0 0 0 0 0 0 0 0 0 0 0 0 0 0 0 0 0 0 0 0 0 0 0 0 0 0 0 0 0 0
0 0 0 0 0 0 0 0 0 0 0 0 0 0 0 0 0 0 0 0 0 0 0 0 0 0 0 0 0 0 0 0 0 0 0 0 0 0 0 0 0 0 0 0 0 0 0 0 0
0 0 0 0 0 0 0 0 0 0 0 0 0 0 0 0 0 0 0 0 0 0 0 0 0 0 0 0 0 0 0 0 0 0 0 0 0 0 0 0 0 0 0 0 0 0 0 0 0
0 0 0 0 0 0 0 0 0 0 0 0 0 0 0 0 0 0 0 0 0 0 0 0 0 0 0 0 0 0 0 0 0 0 0 0 0 0 0 0 0 0 0 0 0 0 0 0 0
0 0 0 0 0 0 0 0 0 0 0 0 0 0 0 0 0 0 0 0 0 0 0 0 0 0 0 0 0 0 0 0 0 0 0 0 0 0 0 0 0 0 0 0 0 0 0 0 0
0 0 0 0 0 0 0 0 0 0 0 0 0 0 0 0 0 0 0 0 0 0 0 0 0 0 0 0 0 0 0 0 0 0 0 0 0 0 0 0 0 0 0 0 0 0 0 0 0
Height
5860 5860 5860 5861 5862 5862 5862 5862 5863 5863 5864 5865 5866 5866 5867 5868 5870 5872 5871 5870 5871 5871 5871 5872 5872 5872 5872 5872 5872 5872 5872 5872 5871 5871 5871 5871 5871 5871 5871 5871 5872 5872 5873 5873 5873 5873 5873 5874 5874
5861 5861 5862 5862 5862 5862 5862 5862 5863 5863 5864 5864 5865 5866 5866 5867 5867 5868 5868 5868 5869 5869 5870 5870 5870 5870 5870 5870 5870 5870 5870 5869 5869 5869 5869 5868 5868 5868 5869 5869 5869 5870 5870 5870 5870 5870 5871 5871 5871
5862 5862 5863 5863 5862 5863 5863 5863 5863 5864 5864 5864 5865 5865 5865 5866 5866 5867 5867 5867 5867 5868 5868 5868 5868 5868 5868 5868 5868 5868 5867 5867 5867 5866 5866 5866 5866 5866 5866 5866 5866 5867 5867 5867 5867 5868 5868 5868 5868
5864 5864 5864 5864 5863 5863 5863 5863 5864 5864 5865 5865 5865 5865 5865 5865 5865 5865 5866 5866 5866 5866 5866 5866 5866 5866 5866 5866 5866 5865 5865 5865 5864 5864 5864 5863 5863 5863 5863 5863 5864 5864 5864 5864 5864 5865 5865 5865 5865
5864 5864 5865 5864 5864 5863 5863 5863 5863 5864 5864 5864 5864 5864 5864 5864 5864 5864 5864 5864 5864 5864 5864 5864 5864 5864 5864 5864 5863 5863 5862 5862 5862 5861 5861 5861 5861 5860 5860 5861 5861 5861 5861 5861 5861 5861 5862 5862 5862
5864 5864 5864 5864 5863 5863 5863 5863 5863 5863 5863 5863 5863 5863 5862 5862 5862 5862 5862 5862 5862 5862 5861 5861 5861 5861 5861 5861 5860 5860 5859 5859 5859 5858 5858 5858 5858 5858 5857 5857 5858 5858 5858 5858 5858 5858 5858 5858 5858
5864 5864 5863 5863 5863 5863 5862 5862 5862 5861 5861 5861 5861 5861 5860 5860 5860 5859 5859 5859 5859 5858 5858 5858 5858 5858 5858 5857 5857 5857 5856 5856 5855 5855 5855 5855 5855 5854 5854 5854 5854 5854 5854 5854 5854 5854 5854 5854 5854
5863 5864 5862 5862 5862 5862 5862 5861 5860 5860 5860 5859 5859 5859 5858 5857 5857 5856 5856 5856 5855 5855 5855 5855 5855 5854 5854 5854 5853 5853 5853 5852 5852 5852 5851 5851 5851 5851 5851 5851 5851 5851 5851 5851 5851 5851 5850 5850 5850
5862 5863 5861 5861 5861 5861 5860 5859 5859 5858 5858 5857 5856 5856 5856 5854 5853 5853 5852 5852 5852 5852 5851 5851 5851 5850 5850 5850 5849 5849 5849 5848 5848 5848 5848 5848 5848 5847 5847 5847 5847 5847 5847 5847 5846 5846 5846 5846 5846
5861 5861 5860 5860 5860 5859 5858 5858 5857 5857 5856 5855 5854 5853 5852 5851 5850 5850 5849 5848 5848 5847 5847 5847 5846 5846 5846 5845 5845 5845 5845 5844 5844 5844 5844 5843 5843 5843 5843 5843 5843 5842 5842 5842 5842 5841 5841 5841 5841
5859 5859 5859 5858 5857 5857 5856 5856 5855 5854 5853 5853 5852 5851 5849 5848 5847 5846 5845 5845 5844 5843 5842 5842 5842 5842 5841 5841 5840 5840 5840 5839 5839 5839 5839 5839 5838 5838 5838 5838 5838 5837 5837 5837 5836 5836 5836 5835 5835
5856 5856 5856 5855 5855 5854 5854 5853 5852 5851 5851 5850 5849 5847 5846 5845 5843 5842 5841 5840 5840 5839 5838 5837 5837 5837 5836 5836 5836 5835 5834 5834 5834 5833 5833 5833 5833 5832 5832 5832 5832 5831 5831 5830 5830 5830 5829 5829 5828
5853 5852 5852 5851 5851 5851 5850 5849 5848 5847 5847 5847 5845 5844 5842 5841 5839 5838 5837 5836 5835 5834 5833 5833 5832 5832 5831 5831 5830 5829 5829 5828 5828 5827 5827 5827 5826 5826 5826 5825 5825 5824 5824 5823 5823 5822 5822 5821 5821
5849 5848 5847 5847 5846 5846 5846 5844 5844 5843 5843 5842 5841 5839 5838 5836 5835 5834 5833 5832 5830 5829 5828 5828 5827 5826 5826 5825 5824 5824 5823 5822 5822 5821 5820 5820 5819 5819 5818 5818 5817 5817 5816 5815 5815 5814 5814 5813 5812
5844 5844 5843 5842 5842 5841 5842 5840 5838 5838 5838 5837 5835 5834 5833 5831 5830 5829 5828 5827 5826 5825 5823 5822 5821 5821 5820 5819 5818 5818 5817 5816 5815 5814 5813 5812 5812 5811 5810 5810 5809 5808 5807 5807 5806 5805 5805 5804 5803
5839 5839 5839 5837 5837 5836 5838 5836 5832 5833 5833 5832 5830 5829 5827 5826 5825 5824 5823 5822 5821 5820 5818 5817 5816 5815 5814 5813 5812 5811 5810 5809 5808 5807 5806 5804 5803 5802 5801 5801 5800 5798 5797 5797 5797 5796 5795 5794 5792
5834 5834 5833 5833 5832 5832 5832 5831 5828 5828 5828 5827 5825 5824 5822 5821 5820 5819 5818 5817 5816 5814 5813 5812 5811 5809 5808 5807 5806 5804 5803 5802 5800 5799 5798 5796 5795 5794 5793 5792 5791 5789 5788 5787 5786 5785 5784 5783 5781
5830 5829 5828 5827 5828 5827 5826 5826 5824 5823 5823 5822 5821 5819 5818 5817 5816 5814 5813 5812 5811 5809 5808 5806 5805 5804 5802 5801 5799 5798 5796 5795 5793 5791 5789 5788 5786 5785 5783 5782 5781 5779 5777 5776 5775 5773 5772 5771 5769
5824 5824 5824 5823 5823 5823 5822 5822 5821 5819 5819 5818 5817 5815 5814 5813 5812 5810 5809 5807 5806 5804 5802 5801 5799 5798 5796 5794 5793 5791 5789 5787 5785 5783 5781 5779 5777 5775 5774 5772 5771 5768 5767 5765 5763 5761 5759 5758 5755
5820 5820 5819 5819 5819 5819 5819 5818 5817 5816 5815 5814 5812 5811 5810 5809 5807 5806 5804 5802 5801 5799 5797 5795 5793 5791 5790 5788 5786 5784 5782 5780 5777 5775 5773 5771 5769 5766 5764 5762 5760 5758 5755 5753 5751 5748 5746 5744 5741
5815 5815 5815 5815 5814 5815 5815 5815 5814 5812 5811 5810 5808 5807 5806 5804 5803 5801 5799 5797 5795 5793 5791 5789 5786 5784 5782 5780 5778 5776 5774 5772 5769 5767 5765 5762 5759 5757 5754 5752 5749 5746 5744 5741 5738 5735 5732 5730 5727
5811 5811 5811 5811 5810 5811 5811 5811 5810 5808 5807 5805 5804 5802 5801 5799 5798 5796 5794 5791 5789 5787 5784 5782 5780 5777 5775 5773 5771 5768 5766 5764 5761 5758 5756 5753 5750 5747 5744 5741 5738 5735 5732 5729 5726 5722 5718 5715 5712
5806 5806 5807 5806 5806 5807 5806 5806 5806 5804 5802 5801 5799 5797 5795 5794 5792 5790 5787 5785 5783 5780 5778 5775 5773 5770 5768 5765 5763 5760 5758 5755 5752 5750 5747 5744 5740 5737 5734 5730 5727 5724 5720 5717 5713 5708 5704 5701 5697
5801 5802 5802 5802 5802 5803 5802 5801 5800 5799 5797 5795 5794 5792 5789 5787 5785 5783 5781 5778 5775 5773 5771 5768 5766 5764 5761 5758 5756 5753 5750 5747 5744 5741 5738 5734 5731 5727 5723 5719 5716 5712 5708 5704 5699 5694 5690 5686 5682
5797 5798 5798 5797 5798 5798 5797 5795 5795 5793 5791 5789 5787 5785 5783 5781 5778 5776 5773 5771 5768 5766 5764 5761 5759 5757 5754 5751 5748 5745 5742 5739 5735 5732 5728 5725 5721 5716 5712 5707 5703 5698 5694 5689 5684 5679 5675 5670 5665
5792 5792 5793 5792 5792 5792 5791 5790 5790 5787 5785 5783 5781 5778 5776 5774 5771 5769 5766 5764 5761 5759 5757 5754 5752 5749 5746 5743 5740 5736 5733 5730 5726 5722 5718 5714 5710 5705 5700 5694 5689 5684 5679 5673 5668 5663 5658 5652 5647
5786 5786 5786 5786 5785 5786 5786 5785 5784 5781 5778 5776 5774 5771 5769 5767 5764 5762 5759 5756 5754 5752 5749 5747 5744 5741 5738 5735 5731 5728 5724 5720 5716 5711 5707 5702 5697 5692 5686 5680 5674 5669 5663 5656 5650 5645 5640 5634 5629
5781 5781 5781 5780 5778 5778 5779 5779 5777 5774 5771 5769 5767 5764 5762 5760 5757 5754 5752 5749 5747 5744 5741 5739 5736 5732 5729 5726 5722 5718 5713 5708 5704 5699 5693 5688 5682 5676 5670 5664 5657 5651 5644 5638 5631 5626 5619 5613 5608
5775 5776 5774 5773 5772 5771 5771 5775 5771 5767 5764 5762 5759 5757 5755 5753 5750 5747 5744 5742 5739 5736 5733 5730 5727 5723 5719 5715 5711 5706 5701 5696 5690 5684 5678 5672 5666 5659 5652 5645 5638 5631 5624 5617 5610 5604 5597 5591 5585
5768 5768 5768 5767 5766 5764 5763 5768 5763 5759 5756 5754 5752 5750 5747 5745 5742 5739 5736 5733 5730 5727 5724 5720 5717 5712 5708 5703 5698 5693 5687 5682 5675 5669 5662 5655 5648 5640 5632 5625 5617 5609 5602 5594 5586 5579 5573 5566 5561
Wind_Speed
7 7 6 5 3 2 1 3 5 6 8 9 10 10 10 10 9 10 10 10 10 10 11 11 11 11 11 11 11 12 12 13 13 13 13 13 12 12 12 11 11 11 11 12 12 12 13 13 14
8 8 7 6 6 4 2 1 2 4 6 7 8 9 9 9 9 8 9 9 9 9 10 10 11 11 11 11 12 12 13 13 14 14 14 13 13 12 12 11 11 11 11 11 12 12 13 13 14
7 7 7 6 6 5 4 3 1 2 4 6 7 7 8 8 8 8 8 9 9 9 10 11 11 12 12 13 13 14 14 14 14 14 14 13 13 12 12 11 11 11 11 12 12 12 13 13 14
6 5 5 5 4 4 4 3 2 0 3 4 5 6 7 8 8 8 8 9 10 10 11 11 12 13 13 14 14 15 15 15 15 14 14 13 12 12 12 12 12 12 12 12 13 13 14 14 15
4 4 4 3 2 2 1 0 1 2 4 5 6 7 8 8 9 9 10 10 11 12 13 13 14 14 15 15 16 16 16 15 15 14 14 13 13 12 12 12 12 12 13 13 14 14 14 15 15
3 3 3 2 2 2 2 3 4 5 7 8 8 10 11 10 10 11 12 13 14 14 15 15 16 16 17 17 17 17 17 17 16 15 15 14 14 13 13 13 13 13 14 14 14 14 15 15 15
2 3 3 3 3 4 4 5 6 8 9 10 10 12 14 13 12 13 14 15 16 16 16 17 17 18 18 18 18 18 18 18 17 16 16 16 15 15 15 15 14 14 15 15 15 15 15 15 15
3 3 3 4 5 5 5 6 7 8 10 11 11 12 14 15 14 15 16 16 17 17 18 18 18 19 20 20 20 20 20 19 18 18 18 17 17 17 17 16 16 16 16 16 16 16 16 17 17
6 5 5 5 6 7 7 7 8 8 9 10 10 10 13 15 16 16 17 17 17 18 18 19 19 20 21 21 21 21 21 21 20 20 19 19 19 19 19 19 19 19 19 19 19 19 19 19 19
10 9 8 8 8 9 9 9 9 10 11 10 8 10 12 15 16 17 17 17 18 18 19 19 20 20 21 21 22 22 22 22 22 22 22 22 22 22 22 22 22 22 22 22 23 23 23 23 23
13 13 13 12 11 12 12 12 12 12 13 12 11 13 13 15 17 17 18 18 19 20 20 20 21 21 22 22 23 23 23 23 24 24 24 25 25 25 26 26 26 26 27 27 27 27 27 27 28
17 17 17 17 16 15 16 16 16 16 16 15 14 15 15 16 17 18 19 19 20 21 21 21 21 22 23 23 24 24 25 26 26 27 27 28 28 29 29 30 30 30 31 31 32 32 32 32 33
21 21 21 21 20 20 20 20 20 21 20 18 17 17 18 19 19 20 20 20 21 22 22 22 23 23 24 24 25 26 27 28 29 29 30 31 31 32 33 33 34 35 35 36 36 37 37 37 37
23 24 24 24 24 23 23 24 24 24 23 21 20 21 21 21 21 22 22 22 22 22 23 23 24 25 25 26 27 29 30 30 31 32 33 33 34 35 36 37 38 39 40 41 41 41 42 42 43
25 25 26 27 26 25 25 26 27 25 23 23 22 22 22 22 23 23 23 22 22 23 23 24 25 26 27 28 29 30 31 32 33 34 35 36 37 38 39 40 41 43 44 44 45 46 46 47 48
26 26 27 28 27 25 25 25 27 24 22 22 22 22 22 22 23 23 23 23 23 23 23 24 25 26 27 28 29 30 31 32 34 35 36 38 39 41 42 43 44 46 47 48 48 49 50 51 52
26 25 26 27 25 24 23 23 25 22 20 20 20 21 21 21 22 22 22 23 23 23 24 24 25 26 27 28 29 30 31 33 34 36 37 39 41 42 43 44 45 47 49 50 51 51 53 54 55
24 24 24 24 22 21 21 21 22 20 19 18 19 20 21 21 22 22 23 24 24 25 25 26 27 27 28 29 30 31 32 33 35 36 38 39 41 42 43 44 46 48 49 50 52 53 54 55 56
23 22 22 21 20 19 19 18 19 19 18 18 19 20 21 21 22 23 24 25 26 26 27 28 28 29 29 30 31 32 33 34 35 37 39 40 42 43 44 45 46 48 49 51 52 54 55 55 57
21 20 20 20 19 17 17 17 17 17 18 18 19 20 21 22 23 24 25 26 27 28 29 29 30 31 31 32 32 33 34 35 36 38 39 41 42 43 45 46 47 48 50 51 53 54 56 57 58
20 19 19 19 19 18 17 16 17 17 18 20 21 22 23 24 24 25 26 28 29 30 32 32 33 33 33 33 34 34 35 36 37 38 39 40 41 43 44 46 48 49 51 52 54 55 57 58 59
20 19 19 18 19 18 18 17 17 18 20 21 23 24 25 25 26 27 29 30 31 33 33 34 34 34 34 34 34 34 35 36 37 38 40 41 43 44 45 47 49 50 52 53 55 57 58 60 61
20 19 19 18 19 18 19 20 19 20 21 22 24 25 26 27 28 29 30 31 32 32 32 32 31 31 32 32 32 33 34 35 36 38 39 40 41 43 44 46 47 49 51 53 55 57 59 61 63
20 20 20 19 19 19 20 21 21 21 22 23 25 26 27 28 29 30 30 31 31 31 30 30 30 30 31 32 32 33 34 35 36 37 38 40 41 43 45 47 49 50 52 54 56 58 60 61 63
21 21 22 21 20 20 21 22 23 23 24 25 26 28 29 29 30 30 30 31 30 30 30 30 31 31 31 32 33 33 35 36 37 38 40 42 44 46 48 50 51 53 55 57 58 60 61 63 65
22 23 23 24 22 21 22 23 24 25 26 27 28 29 29 29 29 30 30 30 30 30 30 30 31 31 32 32 33 35 36 38 40 42 44 45 47 49 51 54 55 57 59 61 62 64 65 66 67
24 24 25 26 25 24 24 24 25 26 28 28 29 29 29 29 29 29 30 30 31 31 31 32 32 33 33 35 36 38 40 42 44 46 48 50 52 54 56 59 61 62 64 65 67 68 69 70 71
26 26 26 27 29 28 26 25 27 27 28 29 29 30 30 30 30 30 31 32 32 32 33 34 35 36 38 39 41 43 45 47 49 52 54 56 58 60 62 64 66 68 69 71 72 73 74 75 75
27 27 28 30 30 31 30 27 27 29 30 30 31 31 31 32 32 32 33 34 34 35 36 37 39 40 42 44 46 48 51 53 55 58 60 62 64 66 68 70 72 73 75 76 77 78 78 79 79
29 30 30 31 32 33 33 30 29 30 31 32 33 33 33 33 34 35 35 36 37 38 39 41 42 44 47 49 51 53 56 58 61 63 65 68 70 72 74 76 77 78 79 80 81 82 82 82 82
Wind_Direction
64 66 67 67 72 92 161 228 232 232 231 230 228 226 227 228 230 234 238 243 246 247 249 249 249 248 248 250 254 257 260 262 263 263 263 262 261 259 258 257 256 255 254 255 256 257 258 259 259
70 72 69 69 70 75 80 94 215 220 224 222 219 218 218 221 224 226 230 237 241 244 247 248 250 251 252 255 258 262 264 265 265 265 264 263 261 260 259 257 256 256 256 257 259 260 262 263 264
70 72 71 70 68 66 65 64 69 218 221 217 216 216 218 223 224 228 233 239 244 247 249 252 254 256 258 260 263 265 266 266 266 266 265 263 261 260 259 258 258 258 260 262 264 265 266 267 267
65 64 64 67 67 66 65 63 55 259 234 228 226 225 227 230 233 237 240 244 248 252 255 257 259 261 263 265 267 268 268 269 268 266 265 262 261 260 261 261 261 262 263 265 267 268 268 268 268
54 52 51 54 56 59 73 59 258 259 255 250 247 249 249 245 245 247 248 251 254 257 259 261 263 265 267 269 270 270 270 269 269 267 264 261 261 262 262 263 263 264 265 267 267 268 268 268 268
28 23 22 10 343 308 280 268 257 259 262 262 261 263 263 259 256 256 256 258 260 262 264 264 266 267 269 270 270 271 270 269 268 266 263 261 261 262 263 263 264 265 265 266 267 268 268 269 269
343 355 356 343 322 306 290 283 274 271 272 270 267 265 270 270 267 264 263 263 265 266 267 267 267 268 269 270 270 270 269 269 267 265 262 261 262 263 263 262 263 263 264 265 266 268 268 269 270
298 319 328 328 322 317 314 298 289 284 280 278 273 268 272 278 276 272 270 269 269 269 269 269 268 268 269 269 270 270 269 268 267 265 262 262 262 263 262 262 262 262 263 264 266 268 269 270 271
282 291 303 314 318 319 322 313 305 299 292 289 286 276 271 273 275 276 276 274 273 272 271 270 269 269 268 269 269 269 268 268 266 264 262 261 261 261 262 261 262 262 263 265 266 268 269 270 271
274 282 291 299 305 312 315 314 311 307 303 304 297 280 275 275 276 277 278 276 275 274 272 270 269 269 268 268 268 268 268 267 265 263 261 261 261 261 261 261 262 263 263 264 266 267 268 270 271
271 277 284 288 292 298 302 305 305 303 303 305 298 290 284 280 278 277 275 274 273 272 271 271 270 269 268 267 267 267 266 265 264 262 261 261 261 261 261 262 263 263 264 265 266 267 268 270 271
271 274 278 282 286 289 292 294 296 295 297 300 297 292 287 282 280 279 277 274 272 271 272 272 271 270 269 268 267 266 266 265 264 263 263 262 262 262 262 263 264 264 265 266 267 268 269 270 271
270 274 277 280 283 285 287 288 289 290 294 295 291 287 285 283 282 281 279 277 275 274 274 274 273 271 270 269 268 267 266 266 266 265 265 264 264 264 264 264 265 265 266 267 268 269 270 271 272
271 274 277 279 281 284 286 287 286 287 292 290 287 284 282 282 283 283 282 280 279 278 277 277 276 275 274 272 271 270 269 268 268 267 267 267 267 267 266 267 267 267 267 268 269 270 271 272 273
271 274 276 278 280 283 285 285 285 288 289 288 286 283 281 281 282 283 283 282 281 280 279 278 278 277 276 275 274 273 273 272 271 271 270 269 269 269 269 268 268 268 269 269 270 271 272 273 274
270 272 275 277 279 281 283 283 285 289 290 287 286 284 283 283 284 284 284 283 282 281 280 280 279 279 278 278 277 276 276 275 274 273 272 272 271 270 270 270 270 271 271 272 272 273 273 274 274
270 272 274 276 279 281 282 282 286 292 291 288 287 286 286 286 286 286 285 285 284 283 282 282 281 281 280 279 279 279 279 278 277 276 276 275 275 275 275 275 274 274 274 274 275 275 275 275 275
270 272 273 275 279 279 280 282 286 291 289 288 287 286 287 287 286 287 286 287 286 286 285 284 283 283 282 282 281 281 281 280 280 279 279 278 278 278 277 277 277 277 277 277 277 277 277 277 277
270 271 271 274 276 277 278 280 284 286 287 286 285 286 286 286 286 286 287 287 287 287 286 286 285 285 284 285 285 284 283 283 282 281 281 281 281 281 281 280 280 280 279 279 279 279 279 279 279
267 268 270 273 275 275 276 278 279 281 283 283 284 284 284 284 285 286 287 288 288 288 287 287 287 287 287 287 287 286 285 284 283 283 284 284 284 284 284 284 283 283 282 282 282 281 281 281 280
266 267 269 272 275 276 275 275 277 278 280 281 282 283 284 285 286 287 287 288 288 288 288 289 289 290 290 289 289 288 288 287 286 286 286 285 285 285 285 285 285 285 284 284 284 283 283 282 282
265 266 268 270 272 275 277 276 277 279 280 280 282 283 285 286 287 288 287 287 288 289 289 290 291 291 291 291 291 291 290 289 288 288 287 287 287 287 286 286 285 285 285 285 284 284 284 283 283
263 266 267 267 270 273 277 279 279 280 281 282 283 284 285 286 287 287 288 288 289 289 290 291 291 292 293 293 293 292 292 291 291 290 289 289 289 288 288 287 287 286 286 285 284 284 284 283 283
263 266 267 268 270 274 277 281 282 283 284 284 284 284 285 286 286 287 288 289 289 290 290 291 292 294 294 295 295 294 294 294 293 293 292 292 291 291 290 290 289 288 288 287 286 285 285 284 283
263 266 269 269 270 275 279 282 285 287 286 286 286 285 286 286 287 288 289 290 290 290 291 292 294 295 296 296 297 296 296 296 295 295 294 294 294 293 293 293 292 291 290 289 288 287 287 286 285
263 266 270 273 274 277 280 284 288 289 289 288 287 287 287 287 288 288 289 290 290 291 292 294 295 297 298 298 298 298 298 297 297 296 296 295 295 294 294 293 293 292 292 291 290 289 288 287 286
264 267 271 276 277 279 282 286 288 288 288 288 287 287 287 288 288 288 289 289 290 293 294 295 296 297 298 298 298 298 298 298 297 297 297 296 295 295 294 294 293 292 291 290 290 289 288 286 286
265 269 273 276 281 283 284 287 289 289 288 287 287 287 288 288 288 288 288 289 292 294 295 296 297 298 298 299 299 299 299 299 298 298 298 297 296 296 295 294 293 292 291 291 290 289 288 286 285
267 271 274 277 280 284 287 289 291 289 288 287 287 288 289 289 289 288 289 291 293 295 297 298 298 299 299 300 300 300 300 300 299 299 299 298 297 296 296 295 294 293 292 290 289 288 287 286 285
268 272 275 278 281 284 288 291 290 289 287 287 287 288 290 289 288 288 290 292 294 296 298 298 299 299 300 300 300 300 300 300 300 300 299 299 298 297 296 295 294 293 292 291 290 289 288 286 285